User: anonymous   Login
Location: Ostrava
(49.8330°N, 18.2830°E)
Time: 20:58:04
(UTC+01:00)
Language:

NOAA 19 - Orbit

View from above orbital plane
View from above orbital plane
View from above satellite
View from above satellite

Ground track
Ground track

The orbit data is extracted from the following two-line orbital elements,

1 33591U 09005A   18049.89640297 +.00000059 +00000-0 +57408-4 0  9994
2 33591 099.1285 025.6612 0013180 301.5366 058.4517 14.12255007465211
Epoch (UTC): 18 February 2018 21:30:49
Eccentricity: 0.0013180
inclination: 99.1285°
perigee height: 842 km
apogee height: 861 km
right ascension of ascending node: 25.6612°
argument of perigee: 301.5366°
revolutions per day: 14.12255007
mean anomaly at epoch: 58.4517°
orbit number at epoch: 46521

The dashed part of the orbit path shows where the satellite is in the earth's shadow,  

DLR